Weather reports worldwide

Advertisment
Plymouth, United Kingdom (3827): temperature & dewpoint: 15.02.2018 19:00:00 - 21.02.2018 19:00:00 (GMT)Plymouth, United Kingdom (3827): wind speed & gusts: 15.02.2018 19:00:00 - 21.02.2018 19:00:00 (GMT)Plymouth, United Kingdom (3827): wind direction: 15.02.2018 19:00:00 - 21.02.2018 19:00:00 (GMT)Plymouth, United Kingdom (3827): reduced air pressure: 15.02.2018 19:00:00 - 21.02.2018 19:00:00 (GMT)Plymouth, United Kingdom (3827): visibility: 15.02.2018 19:00:00 - 21.02.2018 19:00:00 (GMT)Plymouth, United Kingdom (3827): precipitation: 15.02.2018 19:00:00 - 21.02.2018 19:00:00 (GMT)
Date & Time tt [°C] td [°C] ff [km/h] ff [kn] fx [km/h] fx [kn] dd ppp [hPa] vv [km] rr [mm]
21.02.2018 19:00:00 4,1 0,8 5 3 - - ENE 1025,8 7 0,0
21.02.2018 18:00:00 5,4 0,8 8 4 - - E 1025,6 8 0,0
21.02.2018 17:00:00 6,6 0,6 8 4 - - E 1025,6 11 0,0
21.02.2018 16:00:00 7,8 -0,3 9 5 - - ESE 1025,5 19 0,0
21.02.2018 15:00:00 8,2 0,2 11 6 - - E 1026,0 14 0,0
21.02.2018 14:00:00 8,2 -0,3 15 8 - - E 1026,4 18 0,0
21.02.2018 13:00:00 8,2 0,4 16 9 - - E 1027,0 29 0,0
21.02.2018 12:00:00 8,1 1,6 15 8 - - E 1027,2 29 0,0
21.02.2018 11:00:00 7,2 2,5 15 8 - - E 1027,4 17 0,0
21.02.2018 10:00:00 7,4 3,3 13 7 - - ENE 1027,4 35 0,0
21.02.2018 09:00:00 6,2 3,3 8 4 - - NE 1027,2 21 0,0
21.02.2018 08:00:00 5,2 2,7 9 5 - - NNE 1027,2 20 0,0
21.02.2018 07:00:00 4,2 2,2 2 1 - - N 1027,2 25 0,0
21.02.2018 06:00:00 3,6 2,3 4 2 - - NNE 1027,2 21 0,0
21.02.2018 05:00:00 2,9 1,1 4 2 - - NNW 1027,0 16 0,0
21.02.2018 04:00:00 3,1 1,5 5 3 - - NNE 1026,9 15 0,0
21.02.2018 03:00:00 3,6 2,1 15 8 - - N 1026,8 14 0,0
21.02.2018 02:00:00 4,0 2,5 16 9 - - N 1026,8 12 0,0
21.02.2018 01:00:00 3,9 2,7 11 6 - - NNW 1027,0 10 0,0
21.02.2018 00:00:00 4,2 2,8 11 6 - - N 1027,2 10 0,0
20.02.2018 23:00:00 4,6 2,9 13 7 - - N 1027,2 10 0,0
20.02.2018 22:00:00 5,4 3,2 13 7 - - NNE 1027,2 9 0,0
20.02.2018 21:00:00 6,0 3,6 26 14 46 25 N 1026,8 12 0,0
20.02.2018 20:00:00 6,2 3,5 26 14 46 25 N 1026,6 10 0,0
20.02.2018 19:00:00 6,7 3,2 28 15 - - N 1026,1 19 0,0
20.02.2018 18:00:00 7,3 2,8 22 12 - - N 1026,1 14 0,0
20.02.2018 17:00:00 8,5 2,2 22 12 - - N 1025,3 19 0,0
20.02.2018 16:00:00 9,2 1,6 26 14 46 25 N 1025,3 24 0,0
20.02.2018 15:00:00 9,6 1,9 34 18 48 26 NNW 1024,9 12 0,0
20.02.2018 14:00:00 10,4 1,6 28 15 50 27 N 1024,9 20 0,0
20.02.2018 13:00:00 10,1 2,3 34 18 52 28 N 1025,2 11 0,0
20.02.2018 12:00:00 9,5 3,2 29 16 50 27 N 1025,1 23 0,0
20.02.2018 11:00:00 8,5 3,3 29 16 54 29 N 1024,9 11 0,0
20.02.2018 10:00:00 8,3 3,9 26 14 55 30 N 1025,0 10 0,0
20.02.2018 09:00:00 7,2 4,0 29 16 54 29 N 1024,4 11 0,0
20.02.2018 08:00:00 6,6 3,8 31 17 46 25 N 1023,6 15 0,0
20.02.2018 07:00:00 7,4 4,2 22 12 - - N 1023,1 19 0,0
20.02.2018 06:00:00 8,0 5,7 22 12 - - NNW 1022,9 18 0,0
20.02.2018 05:00:00 8,4 7,1 18 10 - - NNW 1022,4 30 0,0
20.02.2018 04:00:00 8,8 8,4 21 11 - - NNW 1021,8 11 0,0
20.02.2018 03:00:00 8,9 8,4 11 6 - - NNW 1021,8 9 0,0
20.02.2018 02:00:00 8,7 8,0 13 7 - - NNW 1021,7 15 0,0
20.02.2018 01:00:00 8,7 8,0 13 7 - - NNW 1022,0 12 0,0
20.02.2018 00:00:00 8,6 7,7 16 9 - - NW 1021,9 12 0,0
19.02.2018 23:00:00 9,1 7,9 13 7 - - NNW 1021,3 11 0,0
19.02.2018 22:00:00 9,3 8,1 13 7 - - NNW 1021,0 19 0,0
19.02.2018 21:00:00 9,4 8,3 9 5 - - NNW 1020,9 15 0,0
19.02.2018 20:00:00 9,3 8,4 9 5 - - NNW 1020,7 14 0,0
19.02.2018 19:00:00 9,2 8,0 15 8 - - NNW 1020,8 19 0,0
19.02.2018 18:00:00 9,2 7,8 16 9 - - NW 1020,6 24 0,0
19.02.2018 17:00:00 9,9 7,9 18 10 - - NNW 1020,5 20 0,0
19.02.2018 16:00:00 10,8 8,1 18 10 - - NW 1020,0 17 0,0
19.02.2018 15:00:00 11,2 8,5 18 10 - - NNW 1020,0 20 0,0
19.02.2018 14:00:00 10,8 9,0 18 10 - - NNW 1020,1 26 0,0
19.02.2018 13:00:00 10,7 9,4 16 9 - - NNW 1020,2 15 0,0
19.02.2018 12:00:00 10,3 9,3 15 8 - - NNW 1020,4 9 0,0
19.02.2018 11:00:00 10,1 9,4 16 9 - - NW 1020,2 7 0,0
19.02.2018 10:00:00 9,8 9,5 15 8 - - NW 1020,1 11 0,0
19.02.2018 09:00:00 9,4 9,3 11 6 - - W 1020,0 6 0,0
19.02.2018 08:00:00 9,5 9,5 9 5 - - NW 1019,8 7 0,0
19.02.2018 07:00:00 9,1 9,1 2 1 - - WSW 1019,4 6 0,2
19.02.2018 06:00:00 8,9 8,9 5 3 - - WNW 1019,1 9 0,0
19.02.2018 05:00:00 8,7 8,7 5 3 - - W 1019,0 1,4 0,0
19.02.2018 04:00:00 8,7 8,6 8 4 - - W 1019,2 2,0 0,0
19.02.2018 03:00:00 8,7 8,6 5 3 - - WNW 1019,4 1,8 0,0
19.02.2018 02:00:00 8,5 8,4 4 2 - - W 1019,6 3,1 0,0
19.02.2018 01:00:00 8,7 8,5 4 2 - - WSW 1019,9 5 0,0
19.02.2018 00:00:00 8,8 8,6 4 2 - - WSW 1020,1 6 0,0
18.02.2018 23:00:00 8,9 8,7 5 3 - - W 1020,2 6 0,0
18.02.2018 22:00:00 9,1 8,6 2 1 - - NW 1020,2 10 0,0
18.02.2018 21:00:00 9,2 8,7 5 3 - - NNE 1020,1 11 0,0
18.02.2018 20:00:00 9,4 8,9 8 4 - - N 1020,2 13 0,0
18.02.2018 19:00:00 9,8 9,3 8 4 - - NW 1020,0 8 0,0
18.02.2018 18:00:00 9,8 9,4 9 5 - - W 1019,9 30 0,0
18.02.2018 17:00:00 10,0 9,7 5 3 - - SSW 1019,6 10 0,0
18.02.2018 16:00:00 10,1 9,8 5 3 - - SW 1019,4 8 0,0
18.02.2018 15:00:00 10,2 9,9 8 4 - - SSW 1019,3 21 0,0
18.02.2018 14:00:00 10,6 10,3 8 4 - - SSW 1019,3 10 0,0
18.02.2018 13:00:00 9,9 9,5 8 4 - - SSW 1019,5 5 0,0
18.02.2018 12:00:00 11,1 10,8 2 1 - - W 1019,3 21 0,0
18.02.2018 11:00:00 9,7 9,7 0 0 - - N 1019,4 9 0,0
18.02.2018 10:00:00 9,7 9,7 0 0 - - N 1019,2 0,4 0,0
18.02.2018 09:00:00 8,8 8,8 5 3 - - E 1019,2 0,3 0,2
18.02.2018 08:00:00 8,5 8,5 5 3 - - E 1019,0 0,6 0,0
18.02.2018 07:00:00 8,5 8,5 4 2 - - NE 1019,0 0,3 0,2
18.02.2018 06:00:00 9,1 9,1 8 4 - - S 1018,6 0,9 0,0
18.02.2018 05:00:00 8,7 8,7 2 1 - - S 1018,5 0,7 0,2
18.02.2018 04:00:00 8,5 8,5 9 5 - - SE 1018,8 2,6 0,2
18.02.2018 03:00:00 8,1 8,1 15 8 - - SE 1019,3 6 0,0
18.02.2018 02:00:00 7,7 7,6 21 11 - - SE 1020,0 7 1,4
18.02.2018 01:00:00 7,6 7,4 21 11 - - SE 1020,3 5 1,0
18.02.2018 00:00:00 7,4 7,1 22 12 - - SSE 1020,6 3,0 0,4
17.02.2018 23:00:00 7,3 6,9 21 11 - - SSE 1021,0 2,6 0,2
17.02.2018 22:00:00 7,6 6,9 18 10 - - S 1021,4 7 0,0
17.02.2018 21:00:00 7,7 7,0 21 11 - - S 1021,7 9 0,8
17.02.2018 20:00:00 7,4 6,4 16 9 - - SSW 1022,2 6 0,8
17.02.2018 19:00:00 7,8 6,1 16 9 - - SSW 1022,4 10 0,2
17.02.2018 18:00:00 8,4 7,3 18 10 - - SW 1022,4 30 0,0
17.02.2018 17:00:00 8,7 7,0 22 12 - - SW 1022,4 10 0,0
17.02.2018 16:00:00 8,9 7,1 22 12 - - SW 1022,4 10 0,0
17.02.2018 15:00:00 9,7 7,2 21 11 - - S 1022,5 18 0,0
17.02.2018 14:00:00 11,0 7,3 16 9 - - SSW 1022,7 29 0,0
17.02.2018 13:00:00 10,2 7,5 16 9 - - SW 1023,0 20 0,0
17.02.2018 12:00:00 11,7 7,0 13 7 - - SW 1023,0 24 0,0
17.02.2018 11:00:00 9,9 7,1 5 3 - - SW 1023,0 18 0,0
17.02.2018 10:00:00 7,4 5,9 4 2 - - NNW 1022,5 27 0,0
17.02.2018 09:00:00 5,8 5,2 2 1 - - WNW 1021,8 9 0,4
17.02.2018 08:00:00 5,9 4,9 2 1 - - N 1021,4 3,8 0,4
17.02.2018 07:00:00 5,7 4,3 4 2 - - ESE 1020,9 13 0,0
17.02.2018 06:00:00 5,6 3,9 2 1 - - E 1020,7 23 0,0
17.02.2018 05:00:00 5,8 3,8 2 1 - - NNW 1020,2 14 0,0
17.02.2018 04:00:00 5,6 3,7 8 4 - - ESE 1020,1 27 0,0
17.02.2018 03:00:00 6,6 4,0 9 5 - - S 1020,1 13 0,0
17.02.2018 02:00:00 6,5 4,0 9 5 - - SSE 1020,1 13 0,0
17.02.2018 01:00:00 6,5 3,8 11 6 - - SSE 1020,3 18 0,0
17.02.2018 00:00:00 6,8 3,5 15 8 - - SSE 1020,2 14 0,0
16.02.2018 23:00:00 7,1 3,9 16 9 - - SSE 1020,5 17 0,0
16.02.2018 22:00:00 7,0 3,8 13 7 - - SE 1021,0 17 0,0
16.02.2018 21:00:00 6,8 3,4 13 7 - - SE 1021,1 19 0,0
16.02.2018 20:00:00 6,9 2,5 15 8 - - SSE 1021,8 9 0,0
16.02.2018 19:00:00 6,3 1,9 16 9 - - SE 1022,0 20 0,0
16.02.2018 18:00:00 6,5 2,0 18 10 - - SSE 1022,2 20 0,0
16.02.2018 17:00:00 7,2 2,7 16 9 - - SSE 1022,5 17 0,0
16.02.2018 16:00:00 8,1 2,7 16 9 - - SSE 1022,7 17 0,0
16.02.2018 15:00:00 9,8 3,4 22 12 - - S 1023,0 9 0,0
16.02.2018 14:00:00 9,9 3,0 21 11 - - S 1023,7 20 0,0
16.02.2018 13:00:00 10,4 3,7 21 11 - - S 1024,8 28 0,0
16.02.2018 12:00:00 11,0 4,4 16 9 - - S 1025,3 18 0,0
16.02.2018 11:00:00 9,7 5,5 8 4 - - S 1025,7 20 0,0
16.02.2018 10:00:00 5,1 3,6 5 3 - - E 1025,7 13 0,0
16.02.2018 09:00:00 1,9 1,3 5 3 - - ENE 1025,7 13 0,0
16.02.2018 08:00:00 0,9 0,5 11 6 - - E 1025,5 11 0,0
16.02.2018 07:00:00 1,8 1,4 9 5 - - E 1025,1 10 0,0
16.02.2018 06:00:00 1,2 0,8 8 4 - - ENE 1024,9 21 0,0
16.02.2018 05:00:00 2,1 1,5 4 2 - - SSW 1024,5 9 0,0
16.02.2018 04:00:00 1,8 0,8 5 3 - - ENE 1024,2 12 0,0
16.02.2018 03:00:00 2,7 1,4 4 2 - - E 1024,0 15 0,0
16.02.2018 02:00:00 4,3 2,4 13 7 - - W 1023,6 16 0,0
16.02.2018 01:00:00 4,0 1,9 11 6 - - WNW 1023,2 15 0,0
16.02.2018 00:00:00 4,3 1,7 13 7 - - W 1022,6 14 0,0
15.02.2018 23:00:00 5,6 2,8 22 12 - - W 1022,0 13 0,0
15.02.2018 22:00:00 4,9 2,4 18 10 - - W 1021,6 24 0,0
15.02.2018 21:00:00 5,6 1,8 29 16 - - WSW 1020,8 17 0,0
15.02.2018 20:00:00 5,7 2,7 26 14 - - WSW 1020,1 30 0,0
15.02.2018 19:00:00 5,3 1,4 22 12 46 25 W 1019,4 21 0,0

tt = temperature
td = dewpoint
ff = wind speed
fx = gusts
dd = wind direction
ppp = reduced air pressure
vv = visibility
rr = precipitation

Next stations